User: anonymous   Login
Location: Newark
(49.8348°N, 24.0280°E)
Time: 10:36:48
(UTC+00:00)
Language:

S-56A Canister/Altair - Orbit

View from above orbital plane
View from above orbital plane
View from above satellite
View from above satellite

Ground track
Ground track

The orbit data is extracted from the following two-line orbital elements,

1 00082U 61004B   21016.78286520 -.00000096  00000-0 -27715-4 0  9992
2 00082  38.8550 128.4568 1174825  33.1718 333.7363 12.26049408833992
Epoch (UTC): 16 January 2021 18:47:19
Eccentricity: 0.1174825
inclination: 38.8550°
perigee height: 633 km
apogee height: 2499 km
right ascension of ascending node: 128.4568°
argument of perigee: 33.1718°
revolutions per day: 12.26049408
mean anomaly at epoch: 333.7363°
orbit number at epoch: 83399

The dashed part of the orbit path shows where the satellite is in the earth's shadow,  

DLR